St. Joseph, KS

7:26 PM CDT on September 25, 2017 (GMT -0500)
Rosecrans Memorial

Weather History for KSTJ - February, 2012

Change the Weather History Date:

Monday, February 20, 2012

  Actual Average Record
Temperature  
Mean Temperature 41 °F 33 °F  
Max Temperature 47 °F 44 °F 76 °F (2016)
Min Temperature 35 °F 23 °F -1 °F (1918)
Degree Days  
Heating Degree Days 24 32  
Month to date heating degree days 615 683  
Since 1 July heating degree days 3511 4066  
Cooling Degree Days 0 0  
Month to date cooling degree days 0 0  
Year to date cooling degree days 0 0  
Moisture  
Dew Point 34 °F    
Average Humidity 71    
Maximum Humidity 86    
Minimum Humidity 56    
Precipitation  
Precipitation 0.28 in 0.04 in 1.15 in (1997)
Month to date precipitation 1.55 0.63  
Year to date precipitation 1.73 1.19  
Sea Level Pressure  
Sea Level Pressure 29.83 in    
Wind  
Wind Speed 13 mph (SSE)    
Max Wind Speed 25 mph    
Max Gust Speed 33 mph    
Visibility 9 miles    
Events Rain    
T = Trace of Precipitation, MM = Missing Value Source: NWS Daily Summary

Daily Weather History Graph

Daily Weather History Graph

Search for Another Location

Airport or City:

Trip Planner

Search our weather history database for the weather conditions in past years. The results will help you decide how hot, cold, wet, or windy it might be!

Date:

Astronomy

Feb. 20, 2012 Rise Set
Actual Time 7:06 AM CST 6:01 PM CST
Civil Twilight 6:38 AM CST 6:28 PM CST
Nautical Twilight 6:07 AM CST 7:00 PM CST
Astronomical Twilight 5:36 AM CST 7:31 PM CST
Moon 6:03 AM CST (2/20) 5:06 PM CST (2/20)
Length of Visible Light 11h 49m
Length of Day
10h 54m
Waning Crescent, 1% of the Moon is Illuminated
Feb 20
Waning Crescent
Feb 21
New
Feb 29
First Quarter
Mar 8
Full
Mar 14
Last Quarter

Hourly Weather History & Observations

Time (CST) Temp. Windchill Dew Point Humidity Pressure Visibility Wind Dir Wind Speed Gust Speed Precip Events Conditions
12:53 AM 36.0 °F 28.0 °F 21.9 °F 57% 30.06 in 10.0 mi ESE 11.5 mph - N/A   Clear
1:53 AM 35.1 °F 29.3 °F 23.0 °F 61% 30.05 in 10.0 mi SSE 6.9 mph - N/A   Clear
2:53 AM 35.1 °F 32.2 °F 23.0 °F 61% 30.05 in 10.0 mi Variable 3.5 mph - N/A   Clear
3:53 AM 36.0 °F 27.1 °F 23.0 °F 59% 30.00 in 10.0 mi SE 13.8 mph 21.9 mph N/A   Clear
4:53 AM 35.1 °F 29.3 °F 24.1 °F 64% 30.00 in 10.0 mi South 6.9 mph - N/A   Clear
5:53 AM 36.0 °F 28.5 °F 24.1 °F 62% 29.99 in 10.0 mi SSE 10.4 mph - N/A   Clear
6:53 AM 36.0 °F 26.7 °F 25.0 °F 64% 29.97 in 10.0 mi SE 15.0 mph - N/A   Clear
7:53 AM 35.6 °F 27.1 °F 26.6 °F 70% 29.94 in 10.0 mi SE 12.7 mph 21.9 mph N/A   Clear
8:53 AM 41.0 °F 32.8 °F 28.9 °F 62% 29.95 in 10.0 mi SSE 16.1 mph 21.9 mph N/A   Clear
9:53 AM 43.0 °F 35.7 °F 30.9 °F 62% 29.95 in 10.0 mi SSE 15.0 mph 25.3 mph N/A   Overcast
10:53 AM 46.9 °F - 35.1 °F 63% 29.91 in 10.0 mi SSE 20.7 mph 27.6 mph N/A   Overcast
11:53 AM 46.0 °F 38.5 °F 37.9 °F 73% 29.88 in 10.0 mi SSE 19.6 mph 27.6 mph 0.00 in   Overcast
12:26 PM 46.4 °F 39.8 °F 37.4 °F 71% 29.85 in 9.0 mi SSE 16.1 mph 23.0 mph 0.00 in Rain Light Rain
12:53 PM 45.0 °F 38.5 °F 39.9 °F 82% 29.83 in 4.0 mi SE 13.8 mph 23.0 mph 0.02 in Rain Rain
1:09 PM 44.6 °F 38.1 °F 39.2 °F 81% 29.81 in 6.0 mi SSE 13.8 mph - 0.00 in Rain Light Rain
1:53 PM 45.0 °F 38.5 °F 39.9 °F 82% 29.81 in 5.0 mi SSE 13.8 mph - 0.03 in Rain Light Rain
2:53 PM 45.0 °F 37.1 °F 39.0 °F 80% 29.78 in 10.0 mi South 19.6 mph 32.2 mph 0.07 in   Overcast
3:53 PM 45.0 °F 38.5 °F 39.0 °F 80% 29.75 in 10.0 mi SSE 13.8 mph 19.6 mph 0.00 in   Overcast
4:53 PM 45.0 °F 37.9 °F 37.9 °F 76% 29.71 in 10.0 mi SSE 16.1 mph 26.5 mph N/A   Overcast
5:53 PM 44.1 °F 38.6 °F 39.0 °F 82% 29.71 in 6.0 mi SE 10.4 mph - 0.01 in Rain Light Rain
6:53 PM 44.1 °F 37.7 °F 39.9 °F 85% 29.69 in 10.0 mi SE 12.7 mph - 0.01 in Rain Light Rain
7:53 PM 44.1 °F 39.0 °F 39.0 °F 82% 29.66 in 10.0 mi ESE 9.2 mph - 0.01 in   Overcast
8:32 PM 42.8 °F 38.0 °F 37.4 °F 81% 29.65 in 10.0 mi SW 8.1 mph - 0.00 in Rain Light Rain
8:53 PM 41.0 °F 36.4 °F 37.9 °F 89% 29.65 in 10.0 mi SSE 6.9 mph - 0.01 in   Overcast
9:53 PM 41.0 °F 34.3 °F 37.4 °F 87% 29.63 in 10.0 mi SSW 11.5 mph - N/A   Overcast
10:53 PM 41.0 °F 33.9 °F 37.9 °F 89% 29.65 in 10.0 mi South 12.7 mph - 0.01 in Rain Light Rain
11:29 PM 39.2 °F 33.6 °F 37.4 °F 93% 29.66 in 5.0 mi SSW 8.1 mph - 0.06 in Rain Rain
11:53 PM 39.0 °F 33.4 °F 37.0 °F 93% 29.67 in 8.0 mi SSW 8.1 mph - 0.10 in Rain Light Rain